Wind_Speed
25 26 26 27 28 29 30 30 31 32 33 34 35 35 36 36 37 38 38 39 39 40 41 41 41 41 42 42 42 43 43 43 44 44 44 44 44 44 44 44 45 45 45 44
26 27 27 28 29 30 30 31 31 33 33 35 35 36 37 38 38 38 39 39 39 40 41 41 41 42 42 43 43 43 43 44 45 45 46 45 45 46 45 45 45 46 46 45
26 27 28 29 29 30 31 32 32 34 35 36 37 37 37 38 38 39 39 40 40 40 41 41 42 42 43 43 43 44 44 45 45 46 46 46 46 47 47 46 46 46 47 47
27 27 27 28 30 31 32 32 34 35 36 36 37 38 37 38 38 39 39 40 40 41 41 42 42 43 43 43 44 44 45 45 46 46 46 47 47 48 48 47 47 48 48 48
27 28 28 29 30 31 32 33 34 35 37 38 38 40 38 38 38 38 39 39 40 40 41 41 42 43 43 43 44 45 45 45 46 47 47 47 48 49 49 49 49 49 49 49
29 29 29 29 30 31 32 33 34 36 37 39 38 40 39 37 37 38 38 38 39 40 41 41 42 42 43 44 44 45 46 46 47 48 48 48 49 50 50 50 50 50 50 50
29 30 30 30 31 32 32 33 34 36 37 39 38 40 39 37 37 37 38 38 39 40 41 41 41 42 43 43 44 45 46 47 48 48 49 49 50 50 51 51 52 51 51 50
30 30 30 31 31 33 33 34 35 37 38 38 38 39 38 38 37 37 38 38 39 39 40 41 41 42 42 43 44 45 46 47 47 48 49 49 50 50 50 50 50 51 51 51
29 30 30 31 32 33 34 34 35 37 38 39 39 39 38 38 38 38 38 38 39 40 40 40 40 41 42 43 44 44 45 46 47 47 48 49 49 50 50 51 51 51 50 51
29 30 30 31 32 33 34 34 34 36 38 40 39 38 38 38 39 39 39 38 38 39 39 39 40 41 42 43 43 44 45 46 46 47 48 48 49 49 49 50 50 50 51 51
29 30 31 32 33 33 33 33 35 36 37 39 40 38 38 39 39 39 39 38 38 38 39 39 39 40 41 42 43 44 44 45 45 46 46 47 48 49 49 50 50 50 50 51
29 31 31 32 33 33 33 33 34 35 36 37 39 37 37 38 38 39 39 38 38 38 39 39 39 40 40 40 41 42 43 43 44 44 44 45 46 47 47 49 49 50 50 51
31 31 32 32 33 33 33 32 33 35 36 36 36 35 36 37 37 38 38 38 39 39 39 39 40 40 40 40 40 40 41 41 42 42 43 44 45 45 46 47 48 49 50 50
30 31 32 33 33 33 33 33 33 33 34 35 35 35 35 36 37 37 37 37 38 38 39 39 39 40 40 40 40 39 40 40 41 41 43 44 45 45 46 47 48 48 49 50
32 32 32 32 32 32 32 32 33 34 34 35 34 34 34 36 36 36 36 37 37 37 38 39 39 39 39 40 40 40 40 41 41 42 43 44 44 45 46 47 47 48 48 49
32 33 33 33 33 33 32 32 33 33 33 33 33 33 34 35 35 35 36 36 37 37 38 38 38 39 39 39 39 39 40 40 41 42 43 44 45 45 46 46 46 47 47 47
31 32 32 32 33 34 33 32 32 32 32 33 33 33 33 34 35 35 35 36 36 37 37 38 38 37 38 38 38 38 39 40 41 42 42 43 43 43 44 45 45 45 44 45
31 32 33 33 33 33 33 32 32 32 32 32 32 33 33 34 35 35 36 36 36 37 37 37 37 37 37 37 38 38 39 39 40 41 42 42 41 42 42 42 43 43 44 44
32 32 33 34 34 34 32 33 33 34 33 33 33 33 33 34 34 34 35 36 36 37 37 37 37 36 36 37 37 38 39 39 40 41 41 40 40 40 41 41 42 42 43 43
32 32 33 34 34 34 33 33 34 35 34 33 34 35 34 34 34 34 35 35 36 36 36 36 36 36 36 36 37 37 38 39 39 39 39 39 39 40 40 40 41 41 42 43
32 32 33 33 34 34 33 33 33 34 34 34 35 35 35 35 35 35 36 36 36 36 36 36 36 36 36 36 36 37 37 37 37 38 38 38 38 39 39 40 40 41 42 42
33 33 33 34 34 34 34 34 34 34 34 34 34 34 35 35 35 35 35 35 35 35 36 36 35 36 36 35 35 35 36 36 36 37 37 37 37 38 38 39 39 39 40 41
34 34 35 35 34 35 35 34 34 34 34 35 35 34 34 34 34 34 34 34 34 35 35 34 34 34 34 34 34 34 34 34 34 35 35 36 36 37 37 37 38 38 39 39
35 35 36 35 35 35 35 35 35 34 34 34 34 34 34 33 33 33 33 33 33 33 33 33 33 33 33 33 33 33 33 33 33 33 34 34 35 35 36 37 37 38 38 39
34 35 35 35 35 35 35 35 35 34 34 34 34 34 34 34 34 34 34 34 34 33 33 33 32 32 32 32 32 32 33 33 32 33 33 33 34 34 35 36 36 37 37 38
32 33 34 34 34 35 34 33 34 34 34 35 35 35 35 35 35 34 34 34 33 33 33 32 32 31 31 31 31 31 31 32 32 32 32 32 33 34 35 35 36 36 37 37
Wind_Direction
264 263 264 265 265 265 266 267 267 266 267 267 267 267 267 267 267 268 268 269 270 271 271 271 272 272 271 270 268 267 266 264 263 262 261 260 260 260 260 260 260 261 261 262
266 265 266 265 265 265 266 268 268 268 269 270 269 269 268 269 269 270 270 270 271 272 272 272 273 273 272 271 269 267 266 264 263 262 262 261 260 259 260 260 261 261 261 261
268 267 267 267 267 268 268 270 270 271 271 272 272 271 270 270 271 271 271 271 272 273 274 274 274 273 272 271 269 268 266 264 262 262 262 262 261 260 260 260 261 262 262 261
270 269 269 269 269 270 271 272 272 273 274 274 275 275 273 272 272 272 273 273 273 273 274 274 274 273 272 271 270 268 266 264 263 262 262 262 262 261 260 260 261 261 262 263
273 273 272 272 272 272 273 273 274 275 275 276 276 277 276 274 273 274 275 275 275 274 274 274 274 273 272 271 270 269 267 265 264 263 263 262 262 261 261 260 261 261 261 263
274 274 274 275 274 274 274 275 276 276 277 277 278 278 278 277 276 276 276 276 276 275 275 275 274 274 273 272 270 269 267 266 265 264 264 263 262 262 262 261 261 262 262 262
277 276 276 277 276 275 275 276 277 279 279 280 280 280 280 279 278 278 278 277 277 276 276 276 275 274 273 272 271 270 268 267 267 266 265 264 264 263 263 262 261 262 262 262
280 278 277 278 278 278 277 277 278 281 282 282 281 280 280 279 279 279 279 278 277 277 277 276 276 275 275 273 272 271 269 268 268 267 266 265 264 264 264 263 262 262 262 262
283 281 279 279 280 280 279 279 280 281 282 282 281 281 280 280 281 281 280 279 279 279 278 277 276 276 276 275 274 272 270 269 268 267 267 266 266 265 265 264 263 263 262 262
284 283 282 282 281 280 281 281 281 281 283 284 283 282 283 282 282 282 281 281 281 280 279 279 278 278 277 277 275 273 272 271 270 269 268 267 266 266 265 264 264 264 263 263
285 284 284 283 283 282 282 281 280 280 281 284 284 284 284 284 284 284 283 282 282 281 281 281 281 281 280 279 278 276 273 271 270 269 268 267 267 267 266 264 264 265 265 265
286 285 285 285 285 284 283 283 281 281 282 283 285 286 286 285 285 284 284 283 283 282 282 282 283 283 282 281 280 278 275 273 271 270 269 268 268 268 267 266 266 266 266 266
288 286 287 286 286 285 283 284 283 282 282 283 284 286 286 285 286 285 285 284 284 283 282 283 284 284 283 282 281 279 277 274 272 271 270 269 269 269 268 268 267 267 267 267
289 288 287 287 289 288 286 285 284 284 284 284 285 286 285 285 286 286 286 286 286 284 283 284 285 284 283 283 282 280 277 275 274 272 272 271 271 270 269 269 269 269 269 269
290 290 289 288 288 289 289 287 286 285 286 286 287 286 286 285 286 286 286 287 287 287 286 286 285 285 284 283 281 280 278 277 275 274 274 273 272 272 271 270 270 270 271 271
291 292 291 289 288 288 290 289 288 286 286 287 287 286 286 286 286 287 288 288 289 289 288 288 287 286 284 283 283 282 280 278 277 276 276 275 274 273 272 272 271 271 271 271
290 290 291 291 289 289 290 292 290 288 287 288 288 288 288 287 287 287 288 288 289 289 289 289 289 288 285 284 283 283 281 280 279 278 278 277 276 274 273 272 272 272 272 272
291 291 291 291 290 289 293 291 290 289 288 289 289 289 290 289 288 288 288 289 290 290 291 290 290 288 286 284 284 283 282 282 281 280 279 278 277 275 274 273 273 273 272 273
291 292 291 291 291 291 291 291 289 288 287 287 288 289 289 289 289 289 289 290 291 291 291 291 291 289 288 286 285 284 284 283 282 280 279 278 277 276 276 274 274 274 274 274
292 292 292 291 291 292 294 293 291 289 287 286 287 288 288 289 290 290 291 292 293 293 293 292 292 291 289 288 287 286 286 285 284 282 280 279 278 278 277 276 275 275 275 275
294 292 292 292 292 293 294 294 293 291 291 289 288 288 288 290 290 291 291 293 293 294 294 293 293 292 291 290 289 288 287 285 285 283 281 280 280 279 278 278 278 277 277 276
295 293 293 292 292 293 294 293 291 290 289 289 290 289 289 290 291 292 293 293 294 294 294 295 294 293 293 292 291 289 288 287 286 284 282 281 280 280 280 279 279 279 278 277
294 294 292 292 292 292 292 292 291 289 289 289 289 290 291 291 292 293 294 294 295 295 296 296 296 296 295 295 294 292 291 289 287 286 284 282 282 281 281 280 280 280 280 279
294 293 293 293 292 291 291 290 290 290 289 289 289 290 290 291 293 294 294 295 297 297 297 298 298 298 297 296 296 295 293 292 290 288 287 285 284 283 283 282 282 281 281 281
296 295 295 294 294 292 291 291 291 290 289 288 288 288 289 290 292 294 295 295 297 297 298 298 298 298 297 296 296 296 295 294 292 291 289 288 287 285 285 285 284 284 283 283
297 297 297 297 296 294 293 293 292 290 290 290 289 289 290 290 291 292 294 295 296 297 297 297 298 298 298 298 297 296 296 295 294 293 292 291 290 289 288 287 286 285 285 284
Height
5698 5699 5699 5700 5700 5700 5700 5700 5700 5700 5700 5700 5700 5701 5701 5700 5699 5699 5698 5698 5697 5697 5696 5695 5694 5693 5692 5691 5691 5691 5691 5690 5690 5690 5691 5692 5693 5694 5695 5696 5697 5698 5699 5700
5692 5693 5693 5692 5692 5692 5692 5692 5692 5692 5691 5691 5691 5691 5691 5690 5689 5689 5688 5687 5687 5686 5685 5684 5683 5682 5680 5679 5679 5678 5678 5678 5678 5678 5679 5680 5681 5682 5682 5684 5685 5686 5688 5689
5685 5687 5685 5685 5685 5684 5684 5684 5684 5683 5682 5681 5681 5681 5682 5681 5679 5679 5678 5677 5676 5675 5673 5672 5671 5670 5669 5667 5666 5666 5666 5666 5666 5666 5667 5668 5669 5670 5671 5672 5673 5674 5675 5677
5678 5678 5677 5677 5677 5676 5676 5676 5675 5674 5673 5672 5672 5670 5672 5671 5669 5668 5668 5666 5665 5663 5662 5660 5659 5658 5657 5655 5654 5654 5653 5653 5653 5654 5654 5655 5656 5657 5658 5660 5661 5662 5662 5663
5671 5671 5670 5670 5669 5668 5667 5667 5666 5665 5663 5662 5662 5659 5662 5660 5659 5658 5657 5656 5654 5652 5650 5649 5647 5646 5644 5643 5642 5641 5641 5641 5641 5641 5642 5643 5644 5645 5646 5647 5649 5650 5650 5650
5664 5663 5662 5662 5661 5660 5658 5658 5657 5655 5653 5652 5653 5650 5650 5650 5650 5648 5646 5645 5643 5641 5639 5637 5636 5634 5633 5631 5630 5629 5629 5629 5628 5628 5629 5630 5631 5632 5633 5634 5635 5636 5637 5637
5657 5656 5655 5653 5652 5651 5650 5649 5647 5644 5643 5643 5642 5639 5640 5640 5639 5637 5636 5634 5631 5630 5628 5626 5624 5623 5621 5620 5619 5618 5617 5616 5616 5616 5616 5617 5618 5618 5619 5620 5621 5623 5624 5624
5648 5648 5647 5645 5644 5643 5641 5640 5639 5635 5633 5633 5631 5629 5631 5629 5628 5626 5625 5623 5620 5618 5616 5615 5613 5611 5609 5608 5607 5605 5605 5604 5603 5603 5603 5603 5604 5605 5606 5606 5608 5609 5610 5611
5640 5640 5639 5637 5635 5634 5632 5631 5630 5626 5623 5622 5621 5621 5621 5619 5618 5616 5614 5612 5610 5608 5606 5604 5602 5600 5598 5596 5595 5593 5592 5591 5590 5590 5590 5590 5590 5591 5592 5593 5594 5595 5596 5597
5632 5631 5631 5629 5627 5625 5624 5622 5620 5617 5613 5611 5611 5611 5611 5610 5608 5606 5604 5601 5599 5597 5595 5593 5591 5589 5586 5584 5583 5581 5580 5578 5578 5577 5577 5577 5577 5578 5578 5579 5580 5581 5581 5582
5625 5623 5622 5620 5618 5617 5615 5613 5610 5608 5605 5603 5600 5604 5601 5599 5597 5595 5593 5590 5588 5586 5584 5582 5580 5577 5575 5573 5571 5569 5567 5566 5565 5564 5564 5564 5564 5565 5565 5566 5567 5567 5567 5568
5617 5615 5613 5612 5610 5607 5606 5604 5602 5600 5597 5594 5591 5595 5591 5589 5586 5585 5582 5580 5578 5575 5573 5571 5569 5566 5564 5562 5559 5557 5555 5554 5553 5552 5552 5552 5552 5552 5552 5553 5553 5554 5554 5554
5609 5606 5604 5603 5603 5600 5597 5595 5593 5590 5588 5585 5583 5586 5581 5579 5576 5574 5572 5570 5567 5565 5563 5560 5558 5555 5553 5550 5548 5546 5544 5542 5541 5540 5540 5540 5540 5540 5540 5540 5540 5540 5540 5540
5601 5598 5597 5595 5593 5590 5589 5587 5584 5581 5579 5576 5575 5575 5573 5569 5566 5564 5562 5559 5557 5555 5552 5550 5547 5544 5542 5539 5537 5535 5533 5531 5530 5529 5528 5528 5527 5527 5527 5526 5526 5526 5525 5525
5592 5591 5588 5586 5584 5581 5579 5578 5575 5572 5570 5567 5567 5565 5563 5559 5557 5554 5552 5549 5547 5544 5541 5539 5536 5533 5530 5528 5526 5523 5522 5520 5518 5517 5516 5515 5515 5514 5513 5513 5513 5512 5511 5511
5584 5582 5580 5578 5575 5572 5571 5569 5566 5563 5561 5558 5556 5555 5553 5550 5547 5545 5542 5539 5537 5534 5531 5528 5525 5522 5519 5517 5514 5512 5510 5508 5507 5505 5504 5503 5502 5501 5501 5500 5499 5499 5498 5497
5576 5574 5571 5569 5566 5563 5562 5561 5558 5555 5553 5551 5548 5547 5544 5541 5538 5536 5533 5530 5527 5524 5521 5518 5514 5511 5508 5506 5503 5501 5499 5497 5495 5494 5492 5490 5489 5488 5488 5487 5486 5485 5485 5484
5568 5565 5562 5559 5558 5554 5556 5552 5549 5546 5544 5542 5539 5537 5534 5532 5529 5526 5523 5520 5517 5514 5510 5507 5504 5501 5498 5495 5492 5490 5488 5486 5484 5482 5480 5478 5477 5476 5475 5474 5473 5472 5472 5471
5560 5556 5553 5550 5547 5545 5546 5543 5539 5537 5536 5533 5530 5528 5525 5522 5520 5517 5514 5510 5507 5504 5500 5497 5494 5490 5487 5484 5482 5479 5477 5475 5472 5470 5468 5467 5465 5464 5463 5462 5461 5460 5459 5458
5551 5548 5545 5541 5537 5536 5538 5534 5530 5528 5526 5525 5522 5519 5516 5513 5511 5509 5504 5501 5497 5494 5490 5487 5484 5480 5477 5474 5471 5469 5466 5464 5461 5459 5457 5455 5454 5453 5451 5450 5449 5447 5446 5445
5543 5540 5537 5533 5529 5528 5528 5524 5521 5520 5519 5515 5512 5509 5507 5504 5502 5499 5495 5492 5488 5485 5481 5477 5474 5470 5467 5464 5461 5458 5455 5453 5450 5448 5446 5444 5443 5441 5440 5438 5437 5435 5434 5433
5535 5531 5528 5525 5521 5522 5518 5515 5513 5511 5508 5505 5502 5500 5497 5495 5492 5488 5485 5482 5479 5475 5471 5468 5464 5461 5457 5454 5451 5448 5445 5443 5440 5438 5435 5433 5432 5430 5428 5427 5425 5423 5422 5420
5526 5524 5520 5517 5516 5512 5508 5506 5503 5501 5498 5495 5493 5490 5488 5485 5482 5479 5476 5473 5469 5466 5462 5458 5455 5451 5448 5444 5441 5438 5435 5433 5430 5427 5425 5423 5421 5419 5417 5416 5414 5412 5410 5408
5518 5514 5511 5508 5506 5503 5499 5496 5494 5491 5489 5486 5484 5481 5478 5476 5473 5470 5467 5464 5460 5457 5453 5449 5446 5442 5439 5435 5432 5429 5426 5423 5421 5418 5415 5413 5411 5409 5407 5405 5403 5400 5398 5396
5509 5505 5501 5499 5497 5493 5490 5487 5485 5482 5479 5477 5474 5472 5469 5466 5463 5460 5457 5454 5451 5448 5444 5441 5437 5433 5430 5426 5423 5420 5417 5414 5411 5409 5406 5403 5401 5399 5396 5394 5391 5389 5387 5384
5501 5497 5493 5490 5488 5484 5482 5478 5475 5473 5470 5467 5465 5462 5459 5457 5454 5451 5448 5445 5441 5438 5435 5431 5428 5425 5421 5418 5414 5411 5408 5405 5402 5399 5396 5394 5391 5388 5386 5383 5381 5378 5375 5372